Time,TemperatureF,DewpointF,PressureIn,WindDirection,WindDirectionDegrees,WindSpeedMPH,WindSpeedGustMPH,Humidity,HourlyPrecipIn,Conditions,Clouds,dailyrainin,SoftwareType,DateUTC
2013-05-10 00:03:00,78.0,72.0,30.11,ENE,60,2.0,8.0,83,0.00,,,0.00,,2013-05-10 04:03:00,
2013-05-10 00:12:00,78.0,72.0,30.11,ENE,60,2.0,8.0,83,0.00,,,0.00,,2013-05-10 04:12:00,
2013-05-10 00:23:00,78.0,72.0,30.11,ENE,74,4.0,7.0,83,0.00,,,0.00,,2013-05-10 04:23:00,
2013-05-10 00:33:00,78.0,72.0,30.11,ENE,70,2.0,7.0,83,0.00,,,0.00,,2013-05-10 04:33:00,
2013-05-10 00:43:00,78.0,72.0,30.12,ENE,71,4.0,7.0,83,0.00,,,0.00,,2013-05-10 04:43:00,
2013-05-10 00:53:00,78.0,72.0,30.12,ENE,71,4.0,7.0,83,0.00,,,0.00,,2013-05-10 04:53:00,
2013-05-10 01:02:00,78.0,72.0,30.11,East,88,2.0,7.0,83,0.00,,,0.00,,2013-05-10 05:02:00,
2013-05-10 01:12:00,78.0,72.0,30.11,East,91,1.0,6.0,82,0.00,,,0.00,,2013-05-10 05:12:00,
2013-05-10 01:22:00,78.0,72.0,30.11,East,91,1.0,6.0,82,0.00,,,0.00,,2013-05-10 05:22:00,
2013-05-10 01:32:00,78.0,72.0,30.11,ESE,106,2.0,4.0,82,0.00,,,0.00,,2013-05-10 05:32:00,
2013-05-10 01:42:00,78.0,72.0,30.09,ESE,105,2.0,4.0,83,0.00,,,0.00,,2013-05-10 05:42:00,
2013-05-10 01:52:00,78.0,72.0,30.09,ESE,105,2.0,4.0,83,0.00,,,0.00,,2013-05-10 05:52:00,
2013-05-10 02:02:00,78.0,72.0,30.08,East,86,3.0,6.0,83,0.00,,,0.00,,2013-05-10 06:02:00,
2013-05-10 02:12:00,78.0,72.0,30.08,ENE,65,3.0,9.0,83,0.00,,,0.00,,2013-05-10 06:12:00,
2013-05-10 02:21:00,78.0,72.0,30.08,ENE,65,3.0,9.0,83,0.00,,,0.00,,2013-05-10 06:21:00,
2013-05-10 02:32:00,77.0,70.0,30.08,East,82,3.0,7.0,80,0.00,,,0.00,,2013-05-10 06:32:00,
2013-05-10 02:42:00,77.0,71.0,30.08,East,82,1.0,5.0,81,0.00,,,0.00,,2013-05-10 06:42:00,
2013-05-10 02:52:00,77.0,71.0,30.08,East,82,1.0,5.0,81,0.00,,,0.00,,2013-05-10 06:52:00,
2013-05-10 03:02:00,77.0,71.0,30.07,ENE,75,1.0,5.0,82,0.00,,,0.00,,2013-05-10 07:02:00,
2013-05-10 03:12:00,77.0,71.0,30.07,ENE,75,1.0,5.0,82,0.00,,,0.00,,2013-05-10 07:12:00,
2013-05-10 03:22:00,77.0,71.0,30.07,East,98,2.0,5.0,82,0.00,,,0.00,,2013-05-10 07:22:00,
2013-05-10 03:31:00,77.0,70.0,30.06,East,101,3.0,7.0,80,0.00,,,0.00,,2013-05-10 07:31:00,
2013-05-10 03:42:00,77.0,71.0,30.06,ESE,113,1.0,7.0,81,0.00,,,0.00,,2013-05-10 07:42:00,
2013-05-10 03:52:00,77.0,71.0,30.06,ESE,113,1.0,7.0,81,0.00,,,0.00,,2013-05-10 07:52:00,
2013-05-10 04:02:00,77.0,71.0,30.06,ESE,115,1.0,5.0,82,0.00,,,0.00,,2013-05-10 08:02:00,
2013-05-10 04:12:00,77.0,71.0,30.05,ESE,115,0.0,3.0,83,0.00,,,0.00,,2013-05-10 08:12:00,
2013-05-10 04:22:00,77.0,71.0,30.05,ESE,115,0.0,3.0,83,0.00,,,0.00,,2013-05-10 08:22:00,
2013-05-10 04:32:00,77.0,71.0,30.05,ESE,115,1.0,3.0,83,0.00,,,0.00,,2013-05-10 08:32:00,
2013-05-10 04:42:00,76.0,70.0,30.06,ESE,115,1.0,3.0,83,0.00,,,0.00,,2013-05-10 08:42:00,
2013-05-10 04:52:00,76.0,70.0,30.06,ESE,115,1.0,3.0,83,0.00,,,0.00,,2013-05-10 08:52:00,
2013-05-10 05:01:00,76.0,70.0,30.06,ESE,115,2.0,4.0,83,0.00,,,0.00,,2013-05-10 09:01:00,
2013-05-10 05:11:00,76.0,70.0,30.06,ESE,115,2.0,4.0,83,0.00,,,0.00,,2013-05-10 09:11:00,
2013-05-10 05:21:00,76.0,70.0,30.05,ESE,115,0.0,1.0,83,0.00,,,0.00,,2013-05-10 09:21:00,
2013-05-10 05:32:00,76.0,70.0,30.05,ESE,115,1.0,3.0,83,0.00,,,0.00,,2013-05-10 09:32:00,
2013-05-10 05:43:00,76.0,70.0,30.05,ESE,103,2.0,5.0,83,0.00,,,0.00,,2013-05-10 09:43:00,
2013-05-10 05:52:00,76.0,70.0,30.05,ESE,103,2.0,5.0,83,0.00,,,0.00,,2013-05-10 09:52:00,
2013-05-10 06:03:00,77.0,71.0,30.04,SE,139,3.0,10.0,82,0.00,,,0.00,,2013-05-10 10:03:00,
2013-05-10 06:12:00,77.0,71.0,30.04,SE,139,3.0,10.0,82,0.00,,,0.00,,2013-05-10 10:12:00,
2013-05-10 06:23:00,76.0,70.0,30.05,SE,145,2.0,6.0,83,0.00,,,0.00,,2013-05-10 10:23:00,
2013-05-10 06:32:00,75.0,69.0,30.05,SSE,159,1.0,7.0,83,0.00,,,0.00,,2013-05-10 10:32:00,
2013-05-10 06:42:00,75.0,69.0,30.06,SSE,156,1.0,3.0,83,0.00,,,0.00,,2013-05-10 10:42:00,
2013-05-10 06:53:00,75.0,69.0,30.06,SSE,156,1.0,3.0,83,0.00,,,0.00,,2013-05-10 10:53:00,
2013-05-10 07:02:00,75.0,69.0,30.06,SSE,156,1.0,3.0,83,0.00,,,0.00,,2013-05-10 11:02:00,
2013-05-10 07:12:00,75.0,69.0,30.06,SSE,156,1.0,3.0,83,0.00,,,0.00,,2013-05-10 11:12:00,
2013-05-10 07:22:00,75.0,69.0,30.06,SSE,156,1.0,3.0,83,0.00,,,0.00,,2013-05-10 11:22:00,
2013-05-10 07:32:00,75.0,69.0,30.06,SSE,156,0.0,3.0,83,0.00,,,0.00,,2013-05-10 11:32:00,
2013-05-10 07:42:00,75.0,69.0,30.07,SSE,156,1.0,3.0,83,0.00,,,0.00,,2013-05-10 11:42:00,
2013-05-10 07:52:00,75.0,69.0,30.07,SSE,156,1.0,3.0,83,0.00,,,0.00,,2013-05-10 11:52:00,
2013-05-10 08:01:00,76.0,70.0,30.07,SSE,156,0.0,1.0,83,0.00,,,0.00,,2013-05-10 12:01:00,
2013-05-10 08:12:00,76.0,70.0,30.07,SSE,156,0.0,1.0,83,0.00,,,0.00,,2013-05-10 12:12:00,
2013-05-10 08:22:00,77.0,71.0,30.07,ENE,69,5.0,9.0,81,0.00,,,0.00,,2013-05-10 12:22:00,
2013-05-10 08:32:00,79.0,71.0,30.07,ENE,73,3.0,10.0,77,0.00,,,0.00,,2013-05-10 12:32:00,
2013-05-10 08:42:00,79.0,71.0,30.07,ENE,73,3.0,10.0,77,0.00,,,0.00,,2013-05-10 12:42:00,
2013-05-10 08:52:00,79.0,70.0,30.07,ENE,74,4.0,8.0,75,0.00,,,0.00,,2013-05-10 12:52:00,
2013-05-10 09:01:00,80.0,71.0,30.08,ESE,102,3.0,10.0,74,0.00,,,0.00,,2013-05-10 13:01:00,
2013-05-10 09:11:00,80.0,71.0,30.08,ESE,102,3.0,10.0,74,0.00,,,0.00,,2013-05-10 13:11:00,
2013-05-10 09:21:00,80.0,72.0,30.08,SE,136,4.0,10.0,76,0.00,,,0.00,,2013-05-10 13:21:00,
2013-05-10 09:32:00,81.0,72.0,30.08,East,88,5.0,11.0,74,0.00,,,0.00,,2013-05-10 13:32:00,
2013-05-10 09:42:00,81.0,72.0,30.08,East,90,9.0,13.0,75,0.00,,,0.00,,2013-05-10 13:42:00,
2013-05-10 09:52:00,81.0,72.0,30.08,East,90,9.0,13.0,75,0.00,,,0.00,,2013-05-10 13:52:00,
2013-05-10 10:02:00,81.0,73.0,30.08,ESE,123,6.0,16.0,77,0.00,,,0.00,,2013-05-10 14:02:00,
2013-05-10 10:11:00,81.0,73.0,30.08,ESE,123,6.0,16.0,77,0.00,,,0.00,,2013-05-10 14:11:00,
2013-05-10 10:21:00,81.0,73.0,30.08,SE,138,8.0,15.0,76,0.00,,,0.00,,2013-05-10 14:21:00,
2013-05-10 10:32:00,82.0,73.0,30.09,ENE,70,10.0,15.0,75,0.00,,,0.00,,2013-05-10 14:32:00,
2013-05-10 10:42:00,82.0,74.0,30.09,East,94,6.0,12.0,76,0.00,,,0.00,,2013-05-10 14:42:00,
2013-05-10 10:52:00,82.0,74.0,30.09,East,94,6.0,12.0,76,0.00,,,0.00,,2013-05-10 14:52:00,
2013-05-10 11:02:00,82.0,72.0,30.10,SSE,147,7.0,13.0,73,0.00,,,0.00,,2013-05-10 15:02:00,
2013-05-10 11:20:00,-999.0,-99.9,30.09,SE,124,8.0,15.0,72,0.00,,,0.00,,2013-05-10 15:20:00,
2013-05-10 11:32:00,83.0,73.0,30.09,East,82,5.0,11.0,71,0.00,,,0.00,,2013-05-10 15:32:00,
2013-05-10 11:42:00,84.0,73.0,30.09,East,88,8.0,14.0,69,0.00,,,0.00,,2013-05-10 15:42:00,
2013-05-10 11:53:00,84.0,73.0,30.09,East,88,8.0,14.0,69,0.00,,,0.00,,2013-05-10 15:53:00,
2013-05-10 12:02:00,84.0,73.0,30.09,East,101,5.0,11.0,69,0.00,,,0.00,,2013-05-10 16:02:00,
2013-05-10 12:12:00,84.0,72.0,30.08,ENE,72,5.0,13.0,67,0.00,,,0.00,,2013-05-10 16:12:00,
2013-05-10 12:23:00,84.0,72.0,30.08,ENE,72,5.0,13.0,67,0.00,,,0.00,,2013-05-10 16:23:00,
2013-05-10 12:32:00,85.0,72.0,30.07,ENE,78,6.0,12.0,65,0.00,,,0.00,,2013-05-10 16:32:00,
2013-05-10 12:42:00,86.0,72.0,30.06,ENE,74,7.0,12.0,64,0.00,,,0.00,,2013-05-10 16:42:00,
2013-05-10 12:53:00,86.0,72.0,30.06,ENE,74,7.0,12.0,64,0.00,,,0.00,,2013-05-10 16:53:00,
2013-05-10 13:02:00,85.0,71.0,30.06,East,82,8.0,13.0,64,0.00,,,0.00,,2013-05-10 17:02:00,
2013-05-10 13:12:00,85.0,71.0,30.06,East,82,8.0,13.0,64,0.00,,,0.00,,2013-05-10 17:12:00,
2013-05-10 13:22:00,84.0,73.0,30.06,ENE,70,9.0,16.0,69,0.00,,,0.00,,2013-05-10 17:22:00,
2013-05-10 13:32:00,83.0,72.0,30.05,East,92,12.0,16.0,70,0.00,,,0.00,,2013-05-10 17:32:00,
2013-05-10 13:42:00,83.0,73.0,30.06,East,80,9.0,16.0,71,0.00,,,0.00,,2013-05-10 17:42:00,
2013-05-10 13:52:00,83.0,73.0,30.06,East,80,9.0,16.0,71,0.00,,,0.00,,2013-05-10 17:52:00,
2013-05-10 14:10:00,-999.0,-99.9,30.06,NE,54,8.0,14.0,71,0.00,,,0.00,,2013-05-10 18:10:00,
2013-05-10 14:22:00,83.0,71.0,30.06,ESE,109,8.0,17.0,68,0.00,,,0.00,,2013-05-10 18:22:00,
2013-05-10 14:34:00,83.0,70.0,30.06,ENE,67,9.0,15.0,65,0.00,,,0.00,,2013-05-10 18:34:00,
2013-05-10 14:43:00,84.0,71.0,30.06,ENE,77,8.0,15.0,66,0.00,,,0.00,,2013-05-10 18:43:00,
2013-05-10 14:54:00,84.0,71.0,30.06,ENE,77,8.0,15.0,66,0.00,,,0.00,,2013-05-10 18:54:00,
2013-05-10 15:02:00,83.0,70.0,30.05,SE,130,12.0,19.0,65,0.00,,,0.00,,2013-05-10 19:02:00,
2013-05-10 15:11:00,84.0,72.0,30.05,ESE,108,8.0,16.0,67,0.00,,,0.00,,2013-05-10 19:11:00,
2013-05-10 15:21:00,84.0,72.0,30.05,ESE,108,8.0,16.0,67,0.00,,,0.00,,2013-05-10 19:21:00,
2013-05-10 15:32:00,84.0,72.0,30.04,ENE,68,9.0,16.0,68,0.00,,,0.00,,2013-05-10 19:32:00,
2013-05-10 15:42:00,83.0,72.0,30.04,East,92,11.0,18.0,69,0.00,,,0.00,,2013-05-10 19:42:00,
2013-05-10 15:52:00,83.0,72.0,30.04,East,92,11.0,18.0,69,0.00,,,0.00,,2013-05-10 19:52:00,
2013-05-10 16:02:00,83.0,72.0,30.03,ENE,68,10.0,16.0,70,0.00,,,0.00,,2013-05-10 20:02:00,
2013-05-10 16:12:00,83.0,72.0,30.03,ENE,68,10.0,16.0,70,0.00,,,0.00,,2013-05-10 20:12:00,
2013-05-10 16:21:00,82.0,72.0,30.02,East,90,11.0,20.0,72,0.00,,,0.00,,2013-05-10 20:21:00,
2013-05-10 16:32:00,83.0,73.0,30.03,East,86,7.0,17.0,72,0.00,,,0.00,,2013-05-10 20:32:00,
2013-05-10 16:42:00,83.0,73.0,30.03,East,86,7.0,17.0,72,0.00,,,0.00,,2013-05-10 20:42:00,
2013-05-10 16:52:00,82.0,71.0,30.01,East,101,10.0,16.0,70,0.00,,,0.00,,2013-05-10 20:52:00,
2013-05-10 17:02:00,82.0,72.0,30.02,East,88,6.0,15.0,71,0.00,,,0.00,,2013-05-10 21:02:00,
2013-05-10 17:11:00,82.0,72.0,30.02,ENE,59,9.0,16.0,73,0.00,,,0.00,,2013-05-10 21:11:00,
2013-05-10 17:25:00,82.0,72.0,30.02,ENE,59,9.0,16.0,73,0.00,,,0.00,,2013-05-10 21:25:00,
2013-05-10 17:32:00,82.0,73.0,30.01,SSE,150,10.0,16.0,75,0.00,,,0.00,,2013-05-10 21:32:00,
2013-05-10 17:43:00,82.0,73.0,30.01,East,84,8.0,16.0,75,0.00,,,0.00,,2013-05-10 21:43:00,
2013-05-10 17:53:00,82.0,73.0,30.01,East,84,8.0,16.0,75,0.00,,,0.00,,2013-05-10 21:53:00,
2013-05-10 18:02:00,82.0,73.0,30.02,East,94,7.0,15.0,75,0.00,,,0.00,,2013-05-10 22:02:00,
2013-05-10 18:13:00,81.0,73.0,30.02,ESE,121,8.0,14.0,77,0.00,,,0.00,,2013-05-10 22:13:00,
2013-05-10 18:22:00,81.0,73.0,30.02,ESE,121,8.0,14.0,77,0.00,,,0.00,,2013-05-10 22:22:00,
2013-05-10 18:32:00,81.0,74.0,30.02,South,174,6.0,10.0,79,0.00,,,0.00,,2013-05-10 22:32:00,
2013-05-10 18:42:00,81.0,74.0,30.02,ESE,111,7.0,12.0,79,0.00,,,0.00,,2013-05-10 22:42:00,
2013-05-10 18:52:00,81.0,74.0,30.02,ESE,111,7.0,12.0,79,0.00,,,0.00,,2013-05-10 22:52:00,
2013-05-10 19:02:00,80.0,73.0,30.02,ESE,106,5.0,12.0,79,0.00,,,0.00,,2013-05-10 23:02:00,
2013-05-10 19:12:00,80.0,73.0,30.02,ESE,106,5.0,12.0,79,0.00,,,0.00,,2013-05-10 23:12:00,
2013-05-10 19:22:00,80.0,73.0,30.03,ESE,121,6.0,9.0,80,0.00,,,0.00,,2013-05-10 23:22:00,
2013-05-10 19:33:00,80.0,73.0,30.04,SE,126,5.0,9.0,80,0.00,,,0.00,,2013-05-10 23:33:00,
2013-05-10 19:42:00,80.0,73.0,30.03,ESE,115,6.0,10.0,80,0.00,,,0.00,,2013-05-10 23:42:00,
2013-05-10 19:52:00,80.0,73.0,30.03,ESE,115,6.0,10.0,80,0.00,,,0.00,,2013-05-10 23:52:00,
2013-05-10 20:02:00,79.0,73.0,30.03,SE,129,3.0,8.0,81,0.00,,,0.00,,2013-05-11 00:02:00,
2013-05-10 20:11:00,79.0,73.0,30.03,SE,131,2.0,6.0,82,0.00,,,0.00,,2013-05-11 00:11:00,
2013-05-10 20:21:00,79.0,73.0,30.03,SE,131,2.0,6.0,82,0.00,,,0.00,,2013-05-11 00:21:00,
2013-05-10 20:32:00,79.0,73.0,30.02,ESE,121,3.0,8.0,82,0.00,,,0.00,,2013-05-11 00:32:00,
2013-05-10 20:42:00,79.0,73.0,30.03,SE,142,3.0,9.0,82,0.00,,,0.00,,2013-05-11 00:42:00,
2013-05-10 20:52:00,79.0,73.0,30.03,SE,142,3.0,9.0,82,0.00,,,0.00,,2013-05-11 00:52:00,
2013-05-10 21:01:00,79.0,73.0,30.05,SE,127,2.0,6.0,82,0.00,,,0.00,,2013-05-11 01:01:00,
2013-05-10 21:11:00,79.0,73.0,30.05,SE,133,3.0,5.0,83,0.00,,,0.00,,2013-05-11 01:11:00,
2013-05-10 21:21:00,79.0,73.0,30.05,SE,133,3.0,5.0,83,0.00,,,0.00,,2013-05-11 01:21:00,
2013-05-10 21:32:00,79.0,73.0,30.05,SE,133,2.0,7.0,83,0.00,,,0.00,,2013-05-11 01:32:00,
2013-05-10 21:42:00,79.0,73.0,30.04,South,173,4.0,8.0,83,0.00,,,0.00,,2013-05-11 01:42:00,
2013-05-10 21:52:00,79.0,73.0,30.04,South,173,4.0,8.0,83,0.00,,,0.00,,2013-05-11 01:52:00,
2013-05-10 22:02:00,79.0,73.0,30.04,ESE,123,6.0,8.0,83,0.00,,,0.00,,2013-05-11 02:02:00,
2013-05-10 22:11:00,79.0,73.0,30.04,East,80,4.0,10.0,83,0.00,,,0.00,,2013-05-11 02:11:00,
2013-05-10 22:22:00,79.0,73.0,30.04,East,80,4.0,10.0,83,0.00,,,0.00,,2013-05-11 02:22:00,
2013-05-10 22:32:00,79.0,73.0,30.03,SSE,155,5.0,12.0,83,0.00,,,0.00,,2013-05-11 02:32:00,
2013-05-10 22:42:00,79.0,74.0,30.03,ESE,119,3.0,12.0,84,0.00,,,0.00,,2013-05-11 02:42:00,
2013-05-10 22:52:00,79.0,74.0,30.03,ESE,119,3.0,12.0,84,0.00,,,0.00,,2013-05-11 02:52:00,
2013-05-10 23:01:00,79.0,74.0,30.04,SE,143,5.0,9.0,84,0.00,,,0.00,,2013-05-11 03:01:00,
2013-05-10 23:11:00,79.0,74.0,30.04,SE,143,5.0,9.0,84,0.00,,,0.00,,2013-05-11 03:11:00,
2013-05-10 23:21:00,79.0,74.0,30.04,SE,140,4.0,9.0,84,0.00,,,0.00,,2013-05-11 03:21:00,
2013-05-10 23:33:00,78.0,73.0,30.04,SE,131,4.0,7.0,84,0.00,,,0.00,,2013-05-11 03:33:00,
2013-05-10 23:42:00,78.0,73.0,30.04,SE,127,4.0,6.0,84,0.00,,,0.00,,2013-05-11 03:42:00,
2013-05-10 23:53:00,78.0,73.0,30.04,SE,127,4.0,6.0,84,0.00,,,0.00,,2013-05-11 03:53:00,